[[{"header":{"parameterUnit":"m.s-1","parameterCategory":1,"la1":30.2991,"la2":30.254,"lo1":-89.0895,"lo2":-89.0444,"dy":0.0017,"dx":0.0017,"nx":28,"ny":28,"refTime":"2025-01-31T03:00:00:Z","depth":0,"parameterNumber":2,"parameterNumberName":"U-component_of_WINDS"},"data":[0,0,0,0,0,0,0,0,0,0,0,0,0,0,0,0,0,0,0,0,0,0,0,0,0,0,0,0,0,0,0,0,0,0,0,0,0,0,0,0,0,0,0,0,0,0,0,0,0,0,0,0,0,0,0,0,0,0,1.4408,1.4408,0,1.4425,1.4425,1.4425,1.4401,1.44,1.4399,1.4398,1.4415,1.4416,1.4418,0,0,0,0,0,0,0,0,0,0,0,0,0,1.4355,1.4356,1.4408,1.4408,1.4408,1.4425,1.4425,1.4425,1.4401,1.44,1.4399,1.4398,1.4415,1.4416,1.4418,0,0,0,0,0,0,0,0,0,0,0,0,0,1.4375,1.4356,1.4408,1.4398,1.4398,1.4425,1.4425,1.4425,1.4401,1.44,1.4399,1.4398,1.4414,1.4416,1.4418,1.4455,0,0,1.4424,1.4425,0,0,0,0,0,0,0,0,1.4374,1.4377,1.4399,1.4399,1.4398,1.441,1.4413,1.4436,1.4402,1.44,1.4398,1.4397,1.4414,1.4416,1.4422,1.4456,1.4457,1.4424,1.4425,1.4426,1.4426,0,0,0,0,0,0,0,1.4373,1.4376,1.4415,1.44,1.4399,1.4393,1.4395,1.4417,1.4414,1.44,1.4398,1.4401,1.4414,1.442,1.4422,1.4457,1.4424,1.4426,1.4427,1.4427,1.4524,1.4525,0,0,0,0,0,0,1.4373,1.4375,1.4414,1.4415,1.4383,1.4395,1.4397,1.4407,1.4414,1.4414,1.4402,1.4399,1.4418,1.442,1.4423,1.4468,1.4426,1.4428,1.4429,1.4522,1.4524,1.4526,0,0,0,0,0,0,1.4372,1.4376,1.4413,1.4395,1.4399,1.4397,1.4409,1.4408,1.4415,1.4415,1.4415,1.4409,1.4417,1.442,1.4448,1.4468,1.4428,1.443,1.4521,1.4523,1.4525,1.4557,0,0,0,0,0,0,1.437,1.4376,1.439,1.4395,1.44,1.4438,1.441,1.4409,1.4418,1.4415,1.4422,1.4422,1.4416,1.4445,1.445,1.447,1.4432,1.4519,1.4522,1.4524,1.4555,1.456,1.4565,0,0,0,0,0,1.4368,1.4398,1.4391,1.4396,1.4418,1.4439,1.4442,1.4435,1.442,1.4434,1.4435,1.4421,1.4465,1.4448,1.4453,1.4474,1.4518,1.4521,1.4524,1.4552,1.4559,1.4565,0,0,0,0,0,0,1.4395,1.4399,1.4391,1.4423,1.4431,1.4435,1.4453,1.4443,1.4455,1.4452,1.4443,1.4445,1.4475,1.4477,1.4458,1.4511,1.4489,1.4493,1.4508,1.4515,1.4521,1.4519,1.4433,0,0,0,0,0,1.4404,1.4422,1.4424,1.4452,1.4457,1.4454,1.4463,1.4458,1.4466,1.4469,1.4471,1.4479,1.4495,1.4505,1.4519,1.4555,1.4556,1.4572,1.4577,1.4582,1.4586,1.4605,1.4613,1.4536,1.4536,1.4536,0,0,1.4424,1.4429,1.444,1.4458,1.4463,1.4482,1.4457,1.4477,1.4491,1.4472,1.4498,1.45,1.4509,1.4541,1.4555,1.4544,1.4607,1.4586,1.459,1.4591,1.461,1.4617,1.4623,1.4539,1.4538,1.4538,0,0,1.447,1.4475,1.45,1.4506,1.4515,1.4513,1.4519,1.4525,1.4526,1.4552,1.4539,1.4555,1.4582,1.4588,1.4595,1.4645,1.4634,1.465,1.4679,1.4698,1.4704,1.4709,1.4728,1.4734,1.4654,1.4654,1.4654,0,1.4494,1.4521,1.4513,1.4535,1.4543,1.4528,1.4553,1.4559,1.4572,1.4579,1.4566,1.46,1.4605,1.4639,1.4651,1.4657,1.4664,1.4649,1.4704,1.4709,1.4714,1.4731,1.4738,1.4656,1.4656,1.4656,1.4656,0,1.455,1.4569,1.4587,1.4601,1.4612,1.4635,1.4632,1.4643,1.4637,1.4637,1.4664,1.467,1.4685,1.4693,1.4686,1.4726,1.4719,1.4705,1.4683,1.4723,1.4739,1.4746,1.4659,1.4658,1.4658,1.4657,0,0,1.4612,1.4622,1.4629,1.4635,1.4645,1.4659,1.4682,1.4698,1.4708,1.4718,1.4737,1.4761,1.4749,1.4757,1.4752,1.4769,1.4809,1.4753,1.4753,1.4763,1.4853,1.4864,1.4871,1.4801,1.4803,1.4804,1.4853,0,1.4658,1.4697,1.4692,1.473,1.4748,1.4734,1.4754,1.4762,1.4762,1.4778,1.4778,1.4796,1.4778,1.4783,1.4799,1.48,1.4827,1.4797,1.4819,1.482,1.4818,1.488,1.489,1.4936,1.4859,1.486,1.4861,0,1.4716,1.4729,1.4769,1.4777,1.4784,1.4802,1.4816,1.4831,1.484,1.484,1.4849,1.4841,1.4864,1.4842,1.4874,1.4854,1.4863,1.4865,1.4867,1.4868,1.4843,1.4883,1.4951,1.4958,1.4871,1.487,1.4869,0,1.4758,1.4785,1.4813,1.4819,1.4828,1.4841,1.4846,1.4854,1.4864,1.4877,1.4883,1.4898,1.4907,1.4919,1.4915,1.4899,1.4948,1.4925,1.4948,1.4949,1.4959,1.4959,1.5029,1.4965,1.4965,1.4965,1.4965,0,1.481,1.4835,1.4832,1.4849,1.4877,1.4871,1.4899,1.4902,1.4909,1.4927,1.4915,1.4932,1.4926,1.4943,1.494,1.4967,1.4971,1.4971,1.497,1.4972,1.4972,1.4978,1.4975,1.4967,1.4966,1.4966,1.4966,0,1.4861,1.486,1.4889,1.4896,1.4899,1.4919,1.4925,1.4941,1.4941,1.4964,1.4969,1.4969,1.4988,1.4986,1.5007,1.5005,1.5039,1.5034,1.5036,1.5035,1.5059,1.5057,1.5136,1.5146,1.5075,1.5076,1.5076,0,1.4894,1.4913,1.4923,1.4934,1.494,1.4958,1.4968,1.4963,1.4975,1.4987,1.5002,1.502,1.5034,1.5066,1.5068,1.5084,1.5079,1.5106,1.5082,1.5083,1.508,1.5079,1.5081,1.5111,1.5111,1.5112,1.5113,0,1.4953,1.4952,1.4968,1.4984,1.4997,1.5009,1.502,1.503,1.5026,1.504,1.5059,1.5071,1.5093,1.5111,1.5126,1.5131,1.5122,1.512,1.5127,1.5129,1.513,1.513,1.5049,1.5118,1.5118,1.5117,1.5117,1.5117,1.4997,1.5013,1.5023,1.5041,1.5049,1.506,1.5076,1.5079,1.5095,1.5113,1.5109,1.5131,1.5141,1.5161,1.5167,1.5185,1.5175,1.5184,1.5187,1.5189,1.5192,1.5127,1.5188,1.5187,1.5187,1.5187,1.5187,0,1.5056,1.5061,1.5078,1.5094,1.5109,1.5099,1.5111,1.5124,1.5144,1.5154,1.5168,1.5191,1.5209,1.5213,1.5231,1.5244,1.524,1.5249,1.5248,1.5249,1.5199,1.5192,1.5252,1.5252,1.5252,1.5252,1.5252,1.5251,1.5088,1.5116,1.5116,1.5148,1.5154,1.5176,1.5184,1.5194,1.5202,1.5228,1.5243,1.5246,1.5254,1.5272,1.5288,1.5289,1.5296,1.5306,1.5305,1.5259,1.5252,1.5246,1.5239,1.5308,1.5308,1.5353,1.5354,1.5354]},{"header":{"parameterUnit":"m.s-1","parameterCategory":1,"la1":30.2991,"la2":30.254,"lo1":-89.0895,"lo2":-89.0444,"dy":0.0017,"dx":0.0017,"nx":28,"ny":28,"refTime":"2025-01-31T03:00:00:Z","depth":0,"parameterNumber":3,"parameterNumberName":"V-component_of_WINDS"},"data":[0,0,0,0,0,0,0,0,0,0,0,0,0,0,0,0,0,0,0,0,0,0,0,0,0,0,0,0,0,0,0,0,0,0,0,0,0,0,0,0,0,0,0,0,0,0,0,0,0,0,0,0,0,0,0,0,0,0,-3.1516,-3.1518,0,-3.1619,-3.162,-3.1621,-3.16,-3.1598,-3.1596,-3.1594,-3.17,-3.1704,-3.1709,0,0,0,0,0,0,0,0,0,0,0,0,0,-3.1304,-3.1308,-3.1516,-3.1518,-3.1519,-3.1619,-3.162,-3.1621,-3.16,-3.1598,-3.1595,-3.1593,-3.1698,-3.1704,-3.1709,0,0,0,0,0,0,0,0,0,0,0,0,0,-3.14,-3.1309,-3.1516,-3.152,-3.1522,-3.1618,-3.162,-3.1622,-3.1601,-3.1598,-3.1595,-3.1592,-3.1696,-3.1703,-3.171,-3.1809,0,0,-3.1731,-3.1734,0,0,0,0,0,0,0,0,-3.1395,-3.1408,-3.1518,-3.152,-3.1522,-3.1594,-3.1584,-3.1685,-3.1601,-3.1571,-3.1594,-3.1591,-3.1667,-3.1676,-3.1701,-3.1814,-3.1819,-3.1731,-3.1736,-3.1739,-3.174,0,0,0,0,0,0,0,-3.1388,-3.1403,-3.1557,-3.152,-3.1522,-3.1517,-3.1528,-3.1603,-3.1633,-3.1573,-3.1572,-3.1584,-3.1667,-3.1695,-3.1704,-3.182,-3.1731,-3.1737,-3.1742,-3.1744,-3.2021,-3.2024,0,0,0,0,0,0,-3.138,-3.1398,-3.1554,-3.156,-3.145,-3.1524,-3.1535,-3.1573,-3.1632,-3.1639,-3.1586,-3.1583,-3.1684,-3.1696,-3.1707,-3.1829,-3.1738,-3.1745,-3.1749,-3.2018,-3.2022,-3.2025,0,0,0,0,0,0,-3.1375,-3.1394,-3.1549,-3.1479,-3.1498,-3.153,-3.1573,-3.1577,-3.1605,-3.1643,-3.1648,-3.1609,-3.1683,-3.1698,-3.1784,-3.1832,-3.1748,-3.1754,-3.2014,-3.2019,-3.2024,-3.2071,0,0,0,0,0,0,-3.1369,-3.1392,-3.143,-3.148,-3.1502,-3.1625,-3.1576,-3.1581,-3.1616,-3.1613,-3.1665,-3.1671,-3.1682,-3.1774,-3.1791,-3.184,-3.176,-3.201,-3.2016,-3.2022,-3.2066,-3.2077,-3.2087,0,0,0,0,0,-3.1362,-3.1439,-3.1432,-3.1451,-3.155,-3.1627,-3.164,-3.165,-3.162,-3.1659,-3.1683,-3.167,-3.1824,-3.1783,-3.1802,-3.1854,-3.2007,-3.2015,-3.2022,-3.2061,-3.2075,-3.2087,0,0,0,0,0,0,-3.1394,-3.1446,-3.1438,-3.1534,-3.1576,-3.1623,-3.1672,-3.1665,-3.1717,-3.1711,-3.1721,-3.1734,-3.1822,-3.1846,-3.18,-3.1954,-3.1911,-3.1923,-3.1935,-3.1948,-3.1959,-3.1952,-3.1765,0,0,0,0,0,-3.1412,-3.147,-3.1512,-3.1593,-3.1615,-3.164,-3.1674,-3.1678,-3.1723,-3.1741,-3.1772,-3.1816,-3.1874,-3.1912,-3.1968,-3.2069,-3.2081,-3.2114,-3.2125,-3.2133,-3.2143,-3.22,-3.2216,-3.2049,-3.2049,-3.2049,0,0,-3.1451,-3.1486,-3.1522,-3.16,-3.1634,-3.1695,-3.1655,-3.1721,-3.1766,-3.1751,-3.1835,-3.1859,-3.1909,-3.2004,-3.2047,-3.2027,-3.2192,-3.2142,-3.2149,-3.2155,-3.2209,-3.2225,-3.2239,-3.2054,-3.2053,-3.2052,0,0,-3.1552,-3.1584,-3.1655,-3.169,-3.1741,-3.1757,-3.1774,-3.1823,-3.1839,-3.1923,-3.1913,-3.1968,-3.2068,-3.2104,-3.2136,-3.2252,-3.2242,-3.227,-3.2326,-3.2382,-3.2395,-3.2406,-3.245,-3.2465,-3.228,-3.228,-3.228,0,-3.1593,-3.1684,-3.1693,-3.176,-3.1796,-3.1784,-3.1857,-3.189,-3.1957,-3.1982,-3.1958,-3.2085,-3.2117,-3.2221,-3.225,-3.2275,-3.2296,-3.2264,-3.2392,-3.2404,-3.2415,-3.2456,-3.2472,-3.2283,-3.2283,-3.2282,-3.2282,0,-3.1733,-3.1797,-3.1848,-3.1913,-3.1954,-3.2024,-3.2044,-3.2085,-3.2086,-3.2105,-3.2192,-3.2231,-3.2295,-3.2319,-3.2321,-3.2424,-3.241,-3.2389,-3.2347,-3.2434,-3.2473,-3.2489,-3.2288,-3.2286,-3.2285,-3.2285,0,0,-3.1858,-3.1928,-3.1947,-3.1977,-3.2033,-3.2082,-3.2152,-3.2215,-3.225,-3.2296,-3.2356,-3.2442,-3.2423,-3.2459,-3.2464,-3.2513,-3.2604,-3.2486,-3.2487,-3.2508,-3.2722,-3.2739,-3.2757,-3.2597,-3.26,-3.2603,-3.2719,0,-3.1965,-3.2088,-3.2099,-3.2209,-3.2269,-3.2259,-3.232,-3.2361,-3.2381,-3.2435,-3.2457,-3.2518,-3.2488,-3.251,-3.2557,-3.2583,-3.2648,-3.2575,-3.2654,-3.2657,-3.2643,-3.2777,-3.2794,-3.2902,-3.2734,-3.2736,-3.2738,0,-3.2107,-3.2159,-3.2275,-3.2324,-3.235,-3.2404,-3.2463,-3.2514,-3.2562,-3.2573,-3.2614,-3.2613,-3.2686,-3.264,-3.2741,-3.2691,-3.2724,-3.2742,-3.2746,-3.2755,-3.2704,-3.2791,-3.2936,-3.2953,-3.2762,-3.276,-3.2758,0,-3.2188,-3.2286,-3.2369,-3.2395,-3.2454,-3.2493,-3.2519,-3.2563,-3.2601,-3.2653,-3.2678,-3.2737,-3.277,-3.2817,-3.2832,-3.2797,-3.2934,-3.2889,-3.2946,-3.2946,-3.2976,-3.2974,-3.313,-3.2995,-3.2995,-3.2995,-3.2994,0,-3.2308,-3.238,-3.2407,-3.2458,-3.2539,-3.255,-3.263,-3.2655,-3.2695,-3.2751,-3.2746,-3.2799,-3.2816,-3.2872,-3.2885,-3.2968,-3.2982,-3.2994,-3.2997,-3.2996,-3.2994,-3.3018,-3.3012,-3.2999,-3.2998,-3.2997,-3.2996,0,-3.2412,-3.2433,-3.2523,-3.2572,-3.2585,-3.2643,-3.2685,-3.2735,-3.2754,-3.2826,-3.2843,-3.2874,-3.294,-3.296,-3.3039,-3.3048,-3.3146,-3.3141,-3.313,-3.313,-3.3187,-3.3182,-3.3365,-3.3391,-3.3237,-3.3239,-3.324,0,-3.2488,-3.2544,-3.2598,-3.2636,-3.2664,-3.2724,-3.2762,-3.2776,-3.2816,-3.2875,-3.2918,-3.2984,-3.3037,-3.3144,-3.3173,-3.3234,-3.3232,-3.3292,-3.3241,-3.3239,-3.3235,-3.3232,-3.3239,-3.3302,-3.3304,-3.3305,-3.3306,0,-3.2621,-3.2628,-3.2684,-3.2744,-3.279,-3.2838,-3.2884,-3.2915,-3.2935,-3.2981,-3.3049,-3.309,-3.3172,-3.3238,-3.33,-3.3328,-3.3322,-3.3322,-3.3339,-3.3338,-3.333,-3.3337,-3.3158,-3.3318,-3.3317,-3.3316,-3.3315,-3.3315,-3.2714,-3.2764,-3.281,-3.2873,-3.2909,-3.2952,-3.3002,-3.3028,-3.3084,-3.3152,-3.3157,-3.323,-3.3278,-3.3361,-3.3392,-3.3451,-3.3433,-3.3457,-3.3463,-3.347,-3.3475,-3.332,-3.3462,-3.3461,-3.3461,-3.3461,-3.3461,0,-3.2848,-3.2878,-3.2935,-3.3,-3.3049,-3.3038,-3.3089,-3.3131,-3.3196,-3.324,-3.3293,-3.3372,-3.3436,-3.3471,-3.3535,-3.3575,-3.3574,-3.3592,-3.359,-3.3597,-3.3486,-3.3466,-3.3592,-3.3592,-3.3592,-3.3592,-3.3592,-3.3592,-3.2923,-3.3007,-3.302,-3.3122,-3.3152,-3.3224,-3.3254,-3.3295,-3.333,-3.3418,-3.3472,-3.3494,-3.3535,-3.3602,-3.3661,-3.367,-3.3694,-3.3714,-3.3721,-3.3618,-3.3604,-3.3591,-3.3573,-3.3719,-3.3719,-3.3827,-3.3828,-3.3829]}]]